[[{"header":{"parameterUnit":"m.s-1","parameterCategory":1,"la1":30.2991,"la2":30.254,"lo1":-89.0895,"lo2":-89.0444,"dy":0.0017,"dx":0.0017,"nx":28,"ny":28,"refTime":"2023-07-20T21:00:00:Z","depth":0,"parameterNumber":2,"parameterNumberName":"U-component_of_WINDS"},"data":[0,0,0,0,0,0,0,0,0,0,0,0,0,0,0,0,0,0,0,0,0,0,0,0,0,0,0,0,0,0,0,0,0,0,0,0,0,0,0,0,0,0,0,0,0,0,0,0,0,0,0,0,0,0,0,0,0,0,5.0893,5.0894,0,5.1014,5.1015,5.1017,5.0966,5.0963,5.0961,5.0958,5.1081,5.1086,5.1092,0,0,0,0,0,0,0,0,0,0,0,0,0,5.0616,5.0621,5.0893,5.0895,5.0896,5.1014,5.1015,5.1017,5.0967,5.0963,5.096,5.0957,5.1079,5.1086,5.1093,0,0,0,0,0,0,0,0,0,0,0,0,0,5.0736,5.0623,5.0893,5.0885,5.0886,5.1013,5.1015,5.1017,5.0968,5.0963,5.0959,5.0955,5.1076,5.1085,5.1094,5.1235,0,0,5.1121,5.1125,0,0,0,0,0,0,0,0,5.073,5.0747,5.0885,5.0886,5.0887,5.0971,5.0962,5.109,5.0969,5.0937,5.0958,5.0953,5.1047,5.1058,5.1091,5.1241,5.1246,5.1122,5.1127,5.1131,5.1134,0,0,0,0,0,0,0,5.0721,5.0741,5.0941,5.0887,5.0888,5.0875,5.0887,5.0986,5.1015,5.0939,5.0936,5.0951,5.1047,5.1082,5.1093,5.1248,5.1122,5.1129,5.1135,5.1138,5.1516,5.152,0,0,0,0,0,0,5.0713,5.0734,5.0937,5.0944,5.0796,5.0883,5.0897,5.0948,5.1013,5.1019,5.0954,5.0948,5.1069,5.1083,5.1097,5.1263,5.1131,5.1139,5.1144,5.1511,5.1517,5.1522,0,0,0,0,0,0,5.0707,5.0732,5.0932,5.0839,5.0863,5.0893,5.095,5.0953,5.0988,5.1025,5.103,5.0985,5.1066,5.1085,5.12,5.1267,5.1143,5.1152,5.1506,5.1513,5.152,5.16,0,0,0,0,0,0,5.07,5.073,5.0785,5.084,5.0868,5.1035,5.0955,5.0958,5.1003,5.0996,5.1055,5.1061,5.1064,5.1187,5.1209,5.1277,5.1158,5.15,5.1509,5.1517,5.1591,5.1609,5.1623,0,0,0,0,0,5.069,5.0804,5.0788,5.0813,5.0938,5.1039,5.1054,5.1056,5.1009,5.1063,5.1087,5.1059,5.1257,5.12,5.1224,5.1296,5.1496,5.1506,5.1517,5.1584,5.1605,5.1623,0,0,0,0,0,0,5.0756,5.0811,5.0794,5.093,5.098,5.103,5.1099,5.108,5.1144,5.1135,5.1134,5.1148,5.1266,5.1293,5.1228,5.1434,5.1369,5.1385,5.1412,5.1432,5.1448,5.1438,5.1166,0,0,0,0,0,5.0787,5.0865,5.0908,5.1023,5.1049,5.107,5.1114,5.1111,5.1162,5.1183,5.1215,5.1266,5.1339,5.1388,5.1458,5.1595,5.1605,5.1656,5.1673,5.1686,5.1698,5.1769,5.1791,5.1557,5.1556,5.1556,0,0,5.085,5.089,5.0939,5.1037,5.1076,5.1154,5.1088,5.1176,5.1233,5.1197,5.1306,5.1332,5.1388,5.1515,5.1572,5.154,5.1765,5.1699,5.1709,5.1715,5.1782,5.1804,5.1824,5.1564,5.1562,5.1561,0,0,5.1005,5.1045,5.1142,5.1182,5.1241,5.1253,5.1277,5.133,5.1345,5.1455,5.1428,5.1497,5.1624,5.1664,5.1701,5.1868,5.1843,5.1891,5.1974,5.2043,5.2061,5.2077,5.2133,5.2153,5.1904,5.1904,5.1904,0,5.1076,5.1195,5.1195,5.1284,5.1326,5.1296,5.1394,5.1432,5.1511,5.154,5.1504,5.166,5.1696,5.1829,5.1869,5.1902,5.1926,5.1883,5.2059,5.2075,5.209,5.2143,5.2164,5.1909,5.1909,5.1908,5.1908,0,5.1277,5.136,5.1432,5.1507,5.1558,5.1651,5.1663,5.1715,5.1707,5.1722,5.1833,5.1875,5.1951,5.1983,5.1977,5.2114,5.2092,5.2058,5.1992,5.2117,5.2167,5.2188,5.1917,5.1915,5.1913,5.1912,0,0,5.1478,5.155,5.1576,5.1608,5.167,5.1732,5.1823,5.1896,5.1938,5.1993,5.2066,5.2173,5.2141,5.2183,5.2181,5.2241,5.2365,5.2199,5.22,5.2225,5.2514,5.2537,5.2561,5.235,5.2354,5.2357,5.2508,0,5.1634,5.1792,5.1794,5.1938,5.2012,5.1984,5.2061,5.2106,5.2123,5.2187,5.2206,5.228,5.2233,5.2258,5.2317,5.2338,5.2423,5.2328,5.2415,5.2419,5.2399,5.2587,5.2613,5.2753,5.2528,5.2531,5.2534,0,5.1838,5.1898,5.2049,5.2096,5.2127,5.2197,5.2262,5.2325,5.2375,5.2382,5.2428,5.2416,5.2505,5.2438,5.2559,5.2494,5.253,5.2546,5.2551,5.2557,5.2481,5.2595,5.2798,5.2818,5.2565,5.2562,5.256,0,5.1964,5.2082,5.2187,5.2216,5.2275,5.2324,5.235,5.2395,5.2438,5.2496,5.2522,5.259,5.2626,5.2678,5.2683,5.2635,5.2803,5.2738,5.2809,5.2809,5.2844,5.2841,5.3053,5.2874,5.2873,5.2873,5.2873,0,5.2137,5.2229,5.2244,5.2308,5.241,5.241,5.2511,5.2533,5.2573,5.2639,5.262,5.2682,5.2687,5.2751,5.2756,5.2853,5.2871,5.2877,5.2876,5.2877,5.2875,5.2898,5.2887,5.2879,5.2877,5.2876,5.2875,0,5.2293,5.2307,5.2418,5.2464,5.2478,5.255,5.2588,5.2648,5.2663,5.2747,5.2766,5.2788,5.2862,5.2873,5.296,5.2963,5.3078,5.3069,5.3061,5.3058,5.3127,5.3119,5.3358,5.3388,5.3193,5.3195,5.3196,0,5.2401,5.2471,5.2523,5.2566,5.2595,5.2665,5.2708,5.271,5.2756,5.2815,5.2867,5.2939,5.2996,5.3114,5.3137,5.3202,5.3193,5.3272,5.3202,5.3199,5.3189,5.3183,5.3188,5.3284,5.3287,5.3288,5.329,0,5.2589,5.2591,5.2654,5.2719,5.277,5.2822,5.287,5.2906,5.2914,5.2966,5.304,5.3084,5.3171,5.3241,5.3305,5.3331,5.3311,5.3312,5.3331,5.333,5.332,5.3322,5.3093,5.3306,5.3304,5.3303,5.3302,5.3301,5.2722,5.2781,5.2826,5.2895,5.2932,5.2976,5.3033,5.3054,5.3116,5.3187,5.3185,5.3266,5.331,5.3394,5.3424,5.3486,5.346,5.3489,5.3495,5.3501,5.3506,5.3313,5.3498,5.3497,5.3497,5.3497,5.3496,0,5.2905,5.2932,5.2996,5.3063,5.3117,5.3094,5.3145,5.3191,5.3262,5.3305,5.3361,5.3445,5.3512,5.3539,5.3604,5.3648,5.364,5.3665,5.366,5.3665,5.3528,5.3502,5.367,5.367,5.367,5.367,5.367,5.367,5.3006,5.3104,5.3111,5.3226,5.3252,5.3331,5.3361,5.3401,5.3435,5.3529,5.3584,5.3602,5.3638,5.3705,5.3764,5.377,5.3793,5.3821,5.3823,5.3693,5.3676,5.3659,5.3635,5.3827,5.3827,5.3955,5.3956,5.3957]},{"header":{"parameterUnit":"m.s-1","parameterCategory":1,"la1":30.2991,"la2":30.254,"lo1":-89.0895,"lo2":-89.0444,"dy":0.0017,"dx":0.0017,"nx":28,"ny":28,"refTime":"2023-07-20T21:00:00:Z","depth":0,"parameterNumber":3,"parameterNumberName":"V-component_of_WINDS"},"data":[0,0,0,0,0,0,0,0,0,0,0,0,0,0,0,0,0,0,0,0,0,0,0,0,0,0,0,0,0,0,0,0,0,0,0,0,0,0,0,0,0,0,0,0,0,0,0,0,0,0,0,0,0,0,0,0,0,0,4.0299,4.03,0,4.0381,4.0381,4.0382,4.0356,4.0354,4.0352,4.0351,4.0429,4.0433,4.0437,0,0,0,0,0,0,0,0,0,0,0,0,0,4.0116,4.012,4.0299,4.03,4.0301,4.038,4.0381,4.0383,4.0356,4.0354,4.0352,4.035,4.0428,4.0433,4.0437,0,0,0,0,0,0,0,0,0,0,0,0,0,4.0196,4.0121,4.0299,4.0298,4.0299,4.038,4.0382,4.0383,4.0357,4.0354,4.0351,4.0349,4.0427,4.0432,4.0438,4.0524,0,0,4.0455,4.0457,0,0,0,0,0,0,0,0,4.0192,4.0203,4.0297,4.0298,4.0299,4.0355,4.0346,4.043,4.0357,4.0334,4.0351,4.0348,4.0407,4.0414,4.0434,4.0528,4.0531,4.0455,4.0459,4.0461,4.0462,0,0,0,0,0,0,0,4.0186,4.0199,4.0331,4.0298,4.03,4.0291,4.03,4.0361,4.0384,4.0336,4.0334,4.0345,4.0407,4.0429,4.0436,4.0532,4.0455,4.046,4.0463,4.0466,4.0698,4.0701,0,0,0,0,0,0,4.0181,4.0195,4.0329,4.0334,4.0238,4.0297,4.0306,4.034,4.0383,4.0387,4.0347,4.0343,4.0421,4.043,4.0439,4.0541,4.0461,4.0466,4.0469,4.0695,4.0699,4.0702,0,0,0,0,0,0,4.0177,4.0193,4.0325,4.0264,4.028,4.0303,4.0341,4.0343,4.0365,4.0391,4.0395,4.0366,4.0419,4.0431,4.0503,4.0544,4.0469,4.0474,4.0692,4.0696,4.07,4.0748,0,0,0,0,0,0,4.0172,4.0192,4.0226,4.0265,4.0284,4.039,4.0343,4.0346,4.0376,4.0372,4.041,4.0414,4.0418,4.0495,4.0508,4.055,4.0478,4.0688,4.0694,4.0699,4.0743,4.0754,4.0763,0,0,0,0,0,4.0165,4.0236,4.0228,4.0245,4.0328,4.0393,4.0403,4.0407,4.0379,4.0413,4.0429,4.0413,4.0537,4.0502,4.0517,4.0562,4.0686,4.0692,4.0698,4.0739,4.0752,4.0763,0,0,0,0,0,0,4.0201,4.0241,4.0233,4.0319,4.0353,4.0388,4.0431,4.0421,4.0463,4.0457,4.0459,4.0468,4.0541,4.0559,4.0519,4.0646,4.0607,4.0617,4.0632,4.0645,4.0654,4.0648,4.0483,0,0,0,0,0,4.0219,4.027,4.0302,4.0374,4.0392,4.0409,4.0437,4.0437,4.0472,4.0486,4.0507,4.054,4.0586,4.0616,4.066,4.0745,4.0752,4.0783,4.0793,4.0801,4.0809,4.0853,4.0866,4.0723,4.0722,4.0722,0,0,4.0256,4.0285,4.0317,4.0382,4.0408,4.0459,4.0421,4.0477,4.0514,4.0494,4.0563,4.058,4.0616,4.0695,4.073,4.0711,4.085,4.0809,4.0815,4.0819,4.0861,4.0874,4.0886,4.0727,4.0726,4.0725,0,0,4.035,4.0378,4.044,4.0467,4.0508,4.0518,4.0533,4.057,4.0581,4.0651,4.0636,4.0679,4.0759,4.0785,4.0809,4.0911,4.0896,4.0925,4.0976,4.1019,4.103,4.104,4.1075,4.1087,4.0933,4.0933,4.0933,0,4.0391,4.0469,4.0473,4.0531,4.0559,4.0544,4.0606,4.0631,4.0683,4.0702,4.0681,4.078,4.0803,4.0886,4.0911,4.0931,4.0947,4.092,4.1028,4.1038,4.1048,4.1081,4.1094,4.0936,4.0936,4.0935,4.0935,0,4.0516,4.057,4.0616,4.0668,4.0701,4.076,4.0772,4.0805,4.0801,4.0813,4.0883,4.0911,4.0959,4.0979,4.0977,4.1062,4.1048,4.1028,4.0988,4.1064,4.1095,4.1108,4.0941,4.0939,4.0939,4.0938,0,0,4.0636,4.0689,4.0705,4.0727,4.077,4.0811,4.0868,4.0917,4.0944,4.098,4.1027,4.1094,4.1075,4.1102,4.1102,4.114,4.1216,4.1114,4.1114,4.1131,4.1309,4.1324,4.1339,4.1207,4.121,4.1212,4.1306,0,4.0732,4.0835,4.084,4.0933,4.0981,4.0967,4.1016,4.1047,4.1059,4.11,4.1113,4.116,4.1132,4.1148,4.1185,4.1199,4.1252,4.1193,4.1249,4.1251,4.124,4.1356,4.1372,4.146,4.1318,4.132,4.1322,0,4.0859,4.09,4.0998,4.1032,4.1052,4.1097,4.1141,4.1182,4.1215,4.1221,4.125,4.1244,4.13,4.1259,4.1336,4.1295,4.1318,4.1329,4.1332,4.1337,4.1291,4.1362,4.1488,4.1501,4.1341,4.134,4.1338,0,4.0934,4.1013,4.1082,4.1102,4.1144,4.1175,4.1194,4.1225,4.1253,4.129,4.1308,4.1352,4.1375,4.1408,4.1413,4.1383,4.1489,4.1448,4.1494,4.1494,4.1516,4.1515,4.1646,4.1533,4.1533,4.1532,4.1532,0,4.1041,4.1101,4.1116,4.1158,4.1224,4.1228,4.1292,4.1308,4.1336,4.1379,4.1368,4.1409,4.1413,4.1454,4.1458,4.152,4.153,4.1535,4.1535,4.1536,4.1535,4.1551,4.1544,4.1536,4.1535,4.1534,4.1534,0,4.1136,4.1149,4.1222,4.1256,4.1266,4.1313,4.134,4.1379,4.139,4.1445,4.1458,4.1474,4.1522,4.153,4.1586,4.1588,4.1661,4.1656,4.1651,4.165,4.1694,4.1689,4.1839,4.1858,4.1734,4.1735,4.1736,0,4.1203,4.1249,4.1288,4.1317,4.1337,4.1384,4.1412,4.1417,4.1447,4.1488,4.1521,4.1568,4.1605,4.1682,4.1697,4.1739,4.1734,4.1783,4.174,4.1738,4.1733,4.173,4.1733,4.1791,4.1793,4.1794,4.1795,0,4.132,4.1324,4.1367,4.1412,4.1446,4.1482,4.1515,4.1538,4.1547,4.1581,4.163,4.1659,4.1716,4.1762,4.1803,4.182,4.1808,4.1808,4.1821,4.1821,4.1816,4.1818,4.1672,4.1805,4.1804,4.1803,4.1803,4.1802,4.1402,4.1442,4.1475,4.1522,4.1548,4.1579,4.1617,4.1632,4.1674,4.1721,4.1721,4.1774,4.1804,4.1859,4.1878,4.1919,4.1902,4.1921,4.1925,4.1929,4.1933,4.181,4.1926,4.1926,4.1926,4.1925,4.1925,0,4.1517,4.1538,4.1582,4.1628,4.1665,4.1652,4.1688,4.1719,4.1766,4.1796,4.1833,4.1888,4.1932,4.1951,4.1994,4.2022,4.2018,4.2033,4.203,4.2034,4.1946,4.193,4.2036,4.2036,4.2036,4.2036,4.2036,4.2036,4.1581,4.1647,4.1654,4.1732,4.1751,4.1804,4.1825,4.1853,4.1876,4.1939,4.1976,4.1988,4.2013,4.2057,4.2096,4.21,4.2116,4.2133,4.2135,4.2052,4.2041,4.203,4.2015,4.2137,4.2137,4.222,4.222,4.2221]}]]